This is the latest recevied weather packets stored in our database for station/object SP5QWJ. If no packets are shown the sender has not sent any weather packets the latest 10 day(s).
| Time | Temp. | Humidity | Pressure | Rain* | Wind** | Luminosity | Snow |
|---|---|---|---|---|---|---|---|
| 1778065969 | 25° C | 48% | 1004.2 hPa | - | - | - | - |
| 1778065058 | 25.56° C | 48% | 1004.3 hPa | - | - | - | - |
| 1778064147 | 25.56° C | 47% | 1004.3 hPa | - | - | - | - |
| 1778063235 | 25.56° C | 45% | 1004.3 hPa | - | - | - | - |
| 1778062323 | 25° C | 46% | 1004.3 hPa | - | - | - | - |
| 1778060500 | 28.33° C | 41% | 1004.3 hPa | - | - | - | - |
| 1778059589 | 32.78° C | 39% | 1004.6 hPa | - | - | - | - |
| 1778058678 | 26.11° C | 50% | 1004.4 hPa | - | - | - | - |
| 1778057767 | 25° C | 48% | 1004.3 hPa | - | - | - | - |
| 1778056856 | 25.56° C | 48% | 1004.3 hPa | - | - | - | - |
| 1778055944 | 24.44° C | 51% | 1004.3 hPa | - | - | - | - |
| 1778055033 | 23.89° C | 52% | 1004.1 hPa | - | - | - | - |
| 1778054121 | 23.33° C | 57% | 1004.1 hPa | - | - | - | - |
| 1778053211 | 22.78° C | 59% | 1004.1 hPa | - | - | - | - |
| 1778052299 | 22.78° C | 65% | 1004.3 hPa | - | - | - | - |
| 1778051387 | 21.67° C | 71% | 1004.3 hPa | - | - | - | - |
| 1778050475 | 20.56° C | 77% | 1004.2 hPa | - | - | - | - |
| 1778049564 | 20° C | 85% | 1004.3 hPa | - | - | - | - |
| 1778048651 | 19.44° C | 91% | 1004.5 hPa | - | - | - | - |
| 1778047740 | 18.33° C | 99% | 1004.6 hPa | - | - | - | - |
| 1778046828 | 16.67° C | 100% | 1004.6 hPa | - | - | - | - |
| 1778045917 | 15.56° C | 100% | 1004.7 hPa | - | - | - | - |
| 1778045003 | 15° C | 100% | 1004.8 hPa | - | - | - | - |
| 1778044091 | 14.44° C | 100% | 1004.8 hPa | - | - | - | - |
| 1778043179 | 13.89° C | 100% | 1004.6 hPa | - | - | - | - |
* Rain since midnight (hover to see other rain measurements)
** Current wind speed in m/s (hover to see current wind gust speed)